Vertical_Velocity
9 0 -3 5 11 -46 -19 10 -3 117 8 0 0 8 11 3 5 -2 3 -7 -0 2
20 7 -2 0 -10 12 -24 16 -60 18 2 -6 10 6 11 7 8 1 2 -1 4 -7
16 13 -4 -1 -2 10 -3 8 12 -5 -7 0 1 4 7 2 -2 1 5 -1 4 -1
4 10 6 -1 -10 6 11 17 -14 8 2 -2 0 7 4 -1 6 5 0 2 3 -4
11 13 4 2 -7 -25 -31 -5 -6 -11 -2 2 -5 7 1 1 4 2 5 10 11 3
-1 6 3 7 11 12 2 13 -0 -4 -8 1 -1 3 -0 0 -2 1 -2 9 -4 20
-1 -1 2 2 -6 -8 5 -4 -4 -1 -2 -6 -2 -3 4 2 4 1 2 1 2 2
-3 0 16 2 -4 10 4 -3 14 2 6 3 4 4 5 5 3 -6 2 1 1 -3
-6 18 -3 -8 2 -4 7 -14 -6 -6 -6 -8 -10 5 3 3 -6 4 -5 1 1 -19
2 3 -4 8 -1 -5 3 -10 8 9 -1 4 -13 -6 -6 -12 -12 -6 1 3 -16 -16
16 -3 -2 7 4 3 4 -11 -7 -3 -1 -2 0 4 -1 8 4 0 -1 0 1 1
-4 -2 3 -0 -1 -2 -3 -1 -6 -6 -4 -2 -1 -3 -1 1 -1 -0 3 -3 1 2
1 -1 -4 -5 -9 -6 -1 -4 -4 -1 1 -1 1 -3 -5 -4 3 3 -3 1 3 -2
-3 -3 -1 -1 -3 -3 -4 -3 -5 -5 -6 -5 -3 -2 0 -1 -5 -9 -5 -2 -3 -2
Height
1398 1398 1398 1383 1395 1403 1408 1423 1393 1377 1422 1436 1446 1456 1456 1457 1458 1463 1465 1467 1466 1470
1393 1393 1398 1401 1407 1413 1406 1416 1432 1426 1424 1436 1443 1446 1449 1452 1451 1457 1458 1460 1460 1464
1390 1391 1399 1402 1406 1411 1416 1418 1424 1419 1432 1436 1441 1443 1445 1446 1445 1451 1453 1454 1453 1456
1391 1393 1399 1406 1408 1418 1415 1415 1420 1425 1428 1435 1438 1437 1437 1440 1441 1443 1446 1449 1447 1446
1400 1403 1402 1405 1404 1416 1410 1427 1429 1421 1434 1434 1438 1435 1436 1437 1435 1438 1440 1441 1442 1439
1408 1408 1410 1415 1417 1419 1420 1418 1425 1421 1437 1434 1436 1434 1432 1432 1432 1433 1433 1433 1434 1434
1419 1420 1420 1417 1418 1422 1426 1426 1431 1433 1433 1433 1432 1432 1429 1428 1428 1429 1427 1428 1427 1428
1436 1435 1434 1426 1432 1433 1430 1437 1428 1433 1434 1434 1433 1429 1431 1424 1424 1423 1426 1422 1421 1421
1446 1446 1440 1440 1442 1441 1439 1434 1441 1441 1437 1435 1434 1431 1429 1434 1429 1427 1422 1421 1418 1419
1457 1448 1447 1447 1447 1444 1443 1447 1447 1441 1441 1437 1437 1440 1440 1436 1436 1428 1427 1417 1416 1416
1456 1452 1453 1451 1445 1443 1440 1444 1444 1443 1442 1445 1443 1441 1441 1439 1432 1429 1427 1423 1419 1413
1462 1461 1458 1454 1452 1451 1452 1451 1448 1450 1450 1447 1445 1444 1444 1440 1436 1434 1429 1425 1421 1415
1471 1467 1463 1461 1461 1462 1461 1459 1459 1458 1454 1454 1451 1447 1444 1441 1437 1432 1429 1427 1421 1415
1477 1474 1472 1471 1470 1469 1467 1466 1464 1461 1460 1458 1453 1451 1447 1442 1438 1436 1433 1427 1421 1418